Volver al catálogo

FORMOSAT7-3/COSMIC2-3

ActivoMeteoVLEO
NORAD 44343·PAYLOAD·🇹🇼 Taiwan

Lanzado Jun 25, 2019 desde Cape Canaveral Space Force Station

Loading…

Próximos Pases (próximas 24 horas)

TLE

ActualizadoSource: Space-Track

Época: Sep 14, 2026, 10:51 UTC

1 44343U 19036E   26257.45217214  .00003755  00000-0  20218-3 0  9991
2 44343  23.9990 283.8894 0000266 227.8323 132.2159 15.10377218396753

Sigue FORMOSAT7-3/COSMIC2-3 en tiempo real con AllMySat

Download on the App Store